パンスターズ彗星

C/2016 T3 ( PanSTARRS )

English version
Home page
Updated on November 7, 2017

---------------------------------------------------------------------

・ プロフィール

発見日 2016年10月10日
発見光度 20.1等
発見者 Pan-STARRS 1 telescope (Haleakala)

・ 写真集

・ 軌道要素

Epoch 2017 Sept. 4.0 TT = JDT 2458000.5
T 2017 Sept. 6.97528 TT                                 MPCW
q   2.6495124            (2000.0)            P               Q
z  +0.0070369      Peri.  194.67618     -0.26318902     -0.88444533
 +/-0.0000030      Node   271.74909     +0.91943995     -0.10898919
e   0.9813556      Incl.   22.67609     +0.29216728     -0.45373760
From 219 observations 2016 Oct. 10-2017 Sept. 17, mean residual 0".5.

・ 星図

・ 光度変化

        m1 = 10.2 + 5 logΔ + 10.0 log r

---------------------------------------------------------------------

軌道要素はM.P.E.C. 2017-T14に掲載されたものです。
星図はステラナビゲータ Ver.10 (アストロアーツ) で作成したものです。
光度グラフはComet for Windowsで作成したものです。

---------------------------------------------------------------------

Copyright(C) Seiichi Yoshida (comet@aerith.net). All rights reserved.